Lid_Strength_Index
11 12 14 14 9 8 6 5 5 6 5 5 6 3 3 1 1 1 0 0 -0 -1 -1 -1 -1 -1 -1 -1 -1 -1 -1 -1
12 13 11 10 8 6 7 5 4 5 7 4 2 3 2 0 1 1 1 -0 -1 -1 -1 -1 -1 -1 -1 -1 -2 -2 -2 -2
13 11 9 8 7 6 7 6 6 5 7 6 3 2 2 1 0 1 1 -0 -0 -1 -1 -1 -1 -2 -2 -2 -2 -2 -2 -2
15 10 9 7 7 7 7 6 5 6 6 6 3 2 2 1 1 0 1 -0 -0 -1 -1 -1 -2 -2 -2 -2 -2 -2 -2 -2
13 11 9 8 6 7 8 7 6 4 8 5 3 2 2 2 0 1 -0 -0 -0 -0 -1 -2 -2 -2 -2 -2 -2 -2 -2 -2
11 11 11 7 6 5 7 6 3 3 7 7 3 1 2 2 1 1 0 0 0 0 0 0 -0 -2 -2 -2 -2 -2 -2 -2
11 9 9 6 7 5 4 6 5 4 4 3 2 2 3 3 3 1 1 0 0 0 0 0 0 -1 -2 -2 -2 -2 -2 -2
8 8 7 7 6 6 6 7 7 5 3 2 2 3 3 3 4 3 2 1 0 0 0 0 -0 0 0 -0 -0 0 -0 -0
8 6 6 6 6 6 7 8 6 6 4 3 3 3 3 3 3 3 2 1 1 1 0 1 0 0 -0 -0 0 0 -0 1
7 7 6 7 5 6 6 6 4 4 3 3 4 3 4 3 3 3 3 2 1 1 1 0 0 -0 0 0 1 1 0 0
8 8 7 6 6 7 7 5 3 3 3 4 4 4 4 3 3 4 4 3 1 2 1 0 1 2 2 2 1 0 0 0
8 8 8 8 7 6 6 4 4 4 5 4 4 3 4 3 4 4 4 3 2 1 0 0 1 1 1 1 1 0 0 0
7 8 9 7 8 7 5 4 5 5 5 4 4 3 3 3 3 3 4 1 1 1 0 0 1 0 1 1 0 1 1 1
8 7 7 8 11 7 5 5 6 5 4 4 4 3 3 2 2 2 2 2 1 0 1 1 1 0 1 1 1 1 1 2
10 7 8 9 10 6 5 5 6 5 5 4 4 4 3 2 2 2 1 2 2 1 1 1 0 1 1 1 1 2 2 2
11 9 9 10 10 8 7 6 6 6 6 6 5 5 3 2 2 1 2 1 1 1 1 1 0 0 1 1 2 2 2 2
9 8 9 10 10 8 7 8 7 6 6 6 6 4 4 2 2 2 2 1 1 1 1 1 1 2 2 3 3 2 3 2
9 7 9 9 9 8 8 7 7 7 6 6 6 5 4 3 3 3 2 2 2 2 2 2 2 2 2 2 2 2 2 3
10 9 9 10 11 9 7 8 6 6 6 5 6 6 4 4 4 4 3 2 3 2 3 3 2 3 2 3 2 3 3 4
9 11 14 10 15 11 9 8 7 7 7 6 5 5 5 4 4 4 3 2 4 4 4 4 3 2 3 2 3 3 4 4